Lynchburg, VA

1:04 PM EDT on October 15, 2019 (GMT -0400)
Lynchburg Regional-Glenn

Weather History for KLYH - August, 2019

Change the Weather History Date:

Thursday, August 1, 2019

  Actual Average Record
Temperature  
Mean Temperature 77 °F 75 °F  
Max Temperature 90 °F 86 °F 98 °F (1935)
Min Temperature 63 °F 64 °F 51 °F (1997)
Degree Days  
Heating Degree Days 0 0  
Month to date heating degree days 0 0  
Since 1 June heating degree days 2 15  
Since 1 July heating degree days 0 1  
Cooling Degree Days 12 10  
Month to date cooling degree days 12 10  
Year to date cooling degree days 867 624  
Since 1 June cooling degree days 655 542  
Growing Degree Days 26 (Base 50)    
Moisture  
Dew Point 66 °F    
Average Humidity 72    
Maximum Humidity 93    
Minimum Humidity 50    
Precipitation  
Precipitation 2.10 in 0.12 in 2.10 in (2019)
Month to date precipitation 2.10 0.12  
Year to date precipitation 26.44 24.79  
Snow  
Snow 0.00 in - - ()
Month to date snowfall 0.0  
Since 1 June snowfall 0.0  
Since 1 July snowfall 0.0  
Snow Depth 0.00 in    
Sea Level Pressure  
Sea Level Pressure 30.09 in    
Wind  
Wind Speed 4 mph (SSE)    
Max Wind Speed 21 mph    
Max Gust Speed 36 mph    
Visibility 9 miles    
Events Rain , Thunderstorm    
T = Trace of Precipitation, MM = Missing Value Source: NWS Daily Summary

Daily Weather History Graph

Daily Weather History Graph

Search for Another Location

Airport or City:

Astronomy

Aug. 01, 2019 Rise Set
Actual Time 6:21 AM EDT 8:24 PM EDT
Civil Twilight 5:52 AM EDT 8:53 PM EDT
Nautical Twilight 5:16 AM EDT 9:28 PM EDT
Astronomical Twilight 4:38 AM EDT 10:06 PM EDT
Moon 6:43 AM EDT (8/1) 9:10 PM EDT (8/1)
Length of Visible Light 15h 01m
Length of Day
14h 03m
New Moon, 0% of the Moon is Illuminated
Aug 1
New Moon
Aug 7
First Quarter
Aug 15
Full
Aug 23
Last Quarter
Aug 30
New

Hourly Weather History & Observations

Time (EDT) Temp. Heat Index Dew Point Humidity Pressure Visibility Wind Dir Wind Speed Gust Speed Precip Events Conditions
12:54 AM 66.9 °F - 63.0 °F 87% 30.08 in 10.0 mi Calm Calm - N/A   Clear
1:54 AM 64.9 °F - 63.0 °F 93% 30.07 in 10.0 mi Calm Calm - N/A   Clear
2:54 AM 64.9 °F - 63.0 °F 93% 30.06 in 10.0 mi Calm Calm - N/A   Clear
3:54 AM 64.0 °F - 63.0 °F 96% 30.08 in 10.0 mi Calm Calm - N/A   Partly Cloudy
4:54 AM 64.0 °F - 62.1 °F 93% 30.08 in 10.0 mi Calm Calm - N/A   Partly Cloudy
5:54 AM 63.0 °F - 61.0 °F 93% 30.08 in 10.0 mi Calm Calm - N/A   Clear
6:54 AM 64.0 °F - 62.1 °F 93% 30.09 in 10.0 mi Calm Calm - N/A   Clear
7:54 AM 68.0 °F - 64.9 °F 90% 30.10 in 10.0 mi Calm Calm - N/A   Clear
8:54 AM 73.9 °F - 66.0 °F 76% 30.11 in 10.0 mi WSW 4.6 mph - N/A   Clear
9:54 AM 77.0 °F - 66.9 °F 71% 30.12 in 10.0 mi West 3.5 mph - N/A   Clear
10:54 AM 80.1 °F 82.3 °F 66.9 °F 64% 30.12 in 10.0 mi Calm Calm - N/A   Clear
11:54 AM 84.0 °F 87.0 °F 68.0 °F 58% 30.11 in 10.0 mi Variable 6.9 mph - N/A   Clear
12:54 PM 86.0 °F 88.8 °F 66.9 °F 53% 30.10 in 10.0 mi SE 4.6 mph - N/A   Clear
1:54 PM 88.0 °F 90.3 °F 66.0 °F 48% 30.09 in 10.0 mi SE 4.6 mph - N/A   Mostly Cloudy
2:54 PM 88.0 °F 91.4 °F 68.0 °F 51% 30.06 in 10.0 mi Variable 4.6 mph - N/A   Mostly Cloudy
3:24 PM 87.1 °F 90.6 °F 68.0 °F 53% 30.08 in 10.0 mi NE 6.9 mph - N/A   Mostly Cloudy
3:54 PM 86.0 °F 89.4 °F 68.0 °F 55% 30.04 in 10.0 mi East 5.8 mph - N/A   Mostly Cloudy
4:54 PM 86.0 °F 90.1 °F 69.1 °F 57% 30.03 in 10.0 mi East 3.5 mph - N/A   Partly Cloudy
5:54 PM 84.0 °F 87.8 °F 69.1 °F 61% 30.03 in 10.0 mi South 9.2 mph - N/A   Clear
6:54 PM 82.0 °F 84.5 °F 66.9 °F 60% 30.04 in 10.0 mi Calm Calm - N/A   Overcast
7:20 PM 82.0 °F 85.5 °F 69.1 °F 65% 30.08 in 10.0 mi East 3.5 mph - N/A Thunderstorm Thunderstorm
7:54 PM 80.1 °F 83.2 °F 70.0 °F 71% 30.05 in 10.0 mi Calm Calm - N/A Thunderstorm Thunderstorm
8:54 PM 68.0 °F - 64.0 °F 87% 30.08 in 10.0 mi Variable 6.9 mph 24.2 mph 0.00 in Rain , Thunderstorm Heavy Thunderstorms and Rain
9:10 PM 66.0 °F - 64.0 °F 93% 30.11 in 2.0 mi NNW 11.5 mph 28.8 mph 0.13 in Rain , Thunderstorm Heavy Thunderstorms and Rain
9:15 PM 66.0 °F - 64.9 °F 96% 30.13 in 1.2 mi NNW 17.3 mph 36.8 mph 0.21 in Rain , Thunderstorm Heavy Thunderstorms and Rain
9:19 PM 66.0 °F - 64.0 °F 93% 30.12 in 0.8 mi NW 15.0 mph 36.8 mph 0.43 in Rain , Thunderstorm Heavy Thunderstorms and Rain
9:54 PM 68.0 °F - 66.9 °F 96% 30.12 in 1.0 mi SSE 17.3 mph - 1.70 in Rain , Thunderstorm Heavy Thunderstorms and Rain
10:03 PM 68.0 °F - 66.0 °F 93% 30.12 in 1.8 mi South 12.7 mph - 0.20 in Rain , Thunderstorm Heavy Thunderstorms and Rain
10:10 PM 68.0 °F - 64.9 °F 90% 30.11 in 3.0 mi SSE 13.8 mph 20.7 mph 0.28 in Rain , Thunderstorm Heavy Thunderstorms and Rain
10:33 PM 70.0 °F - 66.0 °F 87% 30.12 in 10.0 mi South 10.4 mph - 0.34 in Rain , Thunderstorm Light Rain
10:54 PM 69.1 °F - 64.9 °F 87% 30.09 in 9.0 mi SSE 12.7 mph - 0.35 in Rain , Thunderstorm Light Rain
11:18 PM 68.0 °F - 63.0 °F 84% 30.13 in 9.0 mi NW 8.1 mph - 0.04 in Rain Light Rain
11:54 PM 64.9 °F - 64.0 °F 97% 30.10 in 10.0 mi NW 4.6 mph - 0.05 in   Clear